Weather History for KWST - March, 2013

Change the Weather History Date:

Tuesday, March 5, 2013

  Actual Average (KGON) Record (KGON)
Temperature  
Mean Temperature 38 °F -  
Max Temperature 46 °F 44 °F 63 °F (1985)
Min Temperature 30 °F 28 °F 9 °F (2009)
Degree Days  
Heating Degree Days 27    
Moisture  
Dew Point 25 °F    
Average Humidity 65    
Maximum Humidity 92    
Minimum Humidity 44    
Precipitation  
Precipitation 0.00 in - - ()
Sea Level Pressure  
Sea Level Pressure 29.96 in    
Wind  
Wind Speed 8 mph (NNW)    
Max Wind Speed 14 mph    
Max Gust Speed 25 mph    
Visibility 10 miles    
Events      
Averages and records for this station are not official NWS values.
T = Trace of Precipitation, MM = Missing Value Source: NWS Daily Summary

Daily Weather History Graph

Daily Weather History Graph

Search for Another Location

Airport or City:

Trip Planner

Search our weather history database for the weather conditions in past years. The results will help you decide how hot, cold, wet, or windy it might be!

Date:

Astronomy

Mar. 05, 2013 Rise Set
Actual Time 6:15 AM EST 5:42 PM EST
Civil Twilight 5:47 AM EST 6:10 PM EST
Nautical Twilight 5:15 AM EST 6:42 PM EST
Astronomical Twilight 4:43 AM EST 7:14 PM EST
Moon 1:27 AM EST (3/5) 11:16 AM EST (3/5)
Length of Visible Light 12h 23m
Length of Day
11h 27m
Last Quarter, 41% of the Moon is Illuminated
Mar 5
Last Quarter
Mar 11
New
Mar 19
First Quarter
Mar 27
Full
Apr 3
Last Quarter

Hourly Weather History & Observations

Time (EST) Temp. Windchill Dew Point Humidity Pressure Visibility Wind Dir Wind Speed Gust Speed Precip Events Conditions
12:53 AM 30.9 °F 22.2 °F 21.0 °F 67% 29.80 in 10.0 mi NNW 10.4 mph 17.3 mph N/A   Clear
2:53 AM 30.0 °F 20.0 °F 21.0 °F 69% 29.82 in 10.0 mi NNW 12.7 mph 25.3 mph N/A   Clear
3:53 AM 30.0 °F 21.7 °F 19.9 °F 66% 29.84 in 10.0 mi NNW 9.2 mph 19.6 mph N/A   Clear
4:53 AM 30.0 °F 21.1 °F 19.9 °F 66% 29.87 in 10.0 mi NNW 10.4 mph 19.6 mph N/A   Clear
5:53 AM 30.0 °F 20.0 °F 19.9 °F 66% 29.89 in 10.0 mi NNW 12.7 mph 20.7 mph N/A   Clear
6:53 AM 30.9 °F 20.7 °F 19.9 °F 64% 29.91 in 10.0 mi NNW 13.8 mph 21.9 mph N/A   Clear
8:53 AM 35.1 °F 25.9 °F 21.0 °F 57% 29.94 in 10.0 mi NNW 13.8 mph - N/A   Mostly Cloudy
9:53 AM 39.0 °F 31.4 °F 21.9 °F 50% 29.95 in 10.0 mi NNW 12.7 mph 21.9 mph N/A   Mostly Cloudy
10:53 AM 42.1 °F 36.1 °F 24.1 °F 49% 29.94 in 10.0 mi NNW 10.4 mph - N/A   Clear
11:53 AM 45.0 °F 39.7 °F 25.0 °F 46% 29.94 in 10.0 mi North 10.4 mph 18.4 mph N/A   Partly Cloudy
12:53 PM 46.0 °F 41.4 °F 26.1 °F 46% 29.94 in 10.0 mi North 9.2 mph 16.1 mph N/A   Scattered Clouds
1:53 PM 46.0 °F 43.9 °F 25.0 °F 44% 29.95 in 10.0 mi Variable 4.6 mph - N/A   Mostly Cloudy
2:53 PM 42.1 °F 37.1 °F 28.0 °F 58% 29.97 in 10.0 mi SSE 8.1 mph - N/A   Overcast
3:53 PM 42.1 °F 39.2 °F 28.9 °F 60% 29.99 in 10.0 mi South 4.6 mph - N/A   Overcast
4:53 PM 42.1 °F - 28.0 °F 58% 30.00 in 10.0 mi Calm Calm - N/A   Overcast
5:53 PM 39.9 °F - 30.9 °F 70% 30.01 in 10.0 mi Calm Calm - N/A   Overcast
6:53 PM 41.0 °F - 32.0 °F 70% 30.03 in 10.0 mi Calm Calm - N/A   Overcast
7:53 PM 35.1 °F - 30.0 °F 82% 30.04 in 10.0 mi Calm Calm - N/A   Clear
8:53 PM 34.0 °F - 28.9 °F 82% 30.05 in 10.0 mi Calm Calm - N/A   Mostly Cloudy
9:53 PM 34.0 °F - 30.0 °F 85% 30.06 in 10.0 mi Calm Calm - N/A   Mostly Cloudy
10:53 PM 30.0 °F - 28.0 °F 92% 30.04 in 10.0 mi Calm Calm - N/A   Partly Cloudy
11:53 PM 30.0 °F - 27.0 °F 88% 30.04 in 10.0 mi Calm Calm - N/A   Clear